Location: Maiden
(35.5760°N, 81.2120°W)
Time: 02:57:48
(UTC-04:00)

Cosmos 2251 Rocket - Pass Details

Date: 02 August 2020
Orbit: 764 x 792 km, 74.0° (Epoch: 11 August)

Event Time Altitude Azimuth Distance (km) Brightness Sun altitude
Rises 21:54:45 0° 192° (SSW) 3,213 6.5 -16.3°
Reaches altitude 10° 21:57:06 10° 191° (S) 2,293 5.7 -16.7°
Maximum altitude 22:02:18 78° 105° (ESE) 788 3.4 -17.6°
Drops below altitude 10° 22:07:33 10° 20° (NNE) 2,320 6.2 -18.4°
Sets 22:09:57 0° 20° (NNE) 3,254 7.0 -18.8°
